Language: 


Des rapports , des résumés tant et plus, au choix de chacun....


Données statistiques de la station
Quotidien Rapport Mars 24, 2017 Unités:  Métrique    Anglais   les deux
« Précédent Jour
Suivant Jour »
Quotidien Hebdomadaire Mensuel Annuel Actuel
  Haut: Bas: Moyen:
Température: 15.7 °C 6.7 °C 10.4 °C
Pt de rosée: 8.1 °C 4.2 °C 5.8 °C
Humidité: 94 % 52 % 74 %
Vitesse du vent: 26.7 km/h 0.0 km/h 13.3 km/h
Rafales: 29.1 km/h - -
Vent:- - ENE
Pression: 1029.0 hPa 1018.2 hPa -
Précipitation: 0.0 mm    
Historical Graphs
 
 
Données statistiques pour Mars 24, 2017
Heure Température Point de rosée Pression Vent Vitesse du vent Refales Humidité Pluie (taux horaire)
00:00 10.3 °C 4.8 °C 1018.8 hPa East 15.8 km/h 27.0 km/h 69 % 0.0 mm
00:05 10.2 °C 4.8 °C 1018.8 hPa East 10.1 km/h 20.9 km/h 69 % 0.0 mm
00:10 10.1 °C 4.7 °C 1018.2 hPa East 16.3 km/h 20.9 km/h 69 % 0.0 mm
00:15 10.1 °C 4.7 °C 1018.2 hPa East 20.9 km/h 23.3 km/h 69 % 0.0 mm
00:20 10.1 °C 4.9 °C 1018.2 hPa East 9.3 km/h 23.3 km/h 70 % 0.0 mm
00:25 10.0 °C 4.8 °C 1018.8 hPa East 22.7 km/h 22.7 km/h 70 % 0.0 mm
00:30 10.0 °C 4.8 °C 1018.8 hPa ENE 13.7 km/h 22.7 km/h 70 % 0.0 mm
00:35 9.9 °C 4.7 °C 1018.8 hPa East 13.7 km/h 20.6 km/h 70 % 0.0 mm
00:40 9.9 °C 4.7 °C 1018.8 hPa NE 14.0 km/h 25.3 km/h 70 % 0.0 mm
00:45 9.8 °C 4.8 °C 1018.8 hPa ENE 15.8 km/h 25.3 km/h 71 % 0.0 mm
00:50 9.7 °C 4.7 °C 1018.8 hPa ENE 13.0 km/h 18.0 km/h 71 % 0.0 mm
00:55 9.6 °C 4.8 °C 1018.8 hPa East 13.7 km/h 21.6 km/h 72 % 0.0 mm
01:00 9.5 °C 4.7 °C 1018.8 hPa NE 16.6 km/h 21.6 km/h 72 % 0.0 mm
01:05 9.5 °C 4.7 °C 1018.8 hPa East 9.3 km/h 20.1 km/h 72 % 0.0 mm
01:10 9.4 °C 4.6 °C 1018.8 hPa East 13.0 km/h 17.7 km/h 72 % 0.0 mm
01:15 9.4 °C 4.6 °C 1018.8 hPa ENE 12.6 km/h 20.1 km/h 72 % 0.0 mm
01:20 9.3 °C 4.7 °C 1018.8 hPa NE 12.6 km/h 20.1 km/h 73 % 0.0 mm
01:25 9.3 °C 4.7 °C 1018.8 hPa NE 12.6 km/h 19.1 km/h 73 % 0.0 mm
01:30 9.3 °C 4.7 °C 1018.8 hPa ENE 9.0 km/h 21.9 km/h 73 % 0.0 mm
01:35 9.3 °C 4.7 °C 1018.8 hPa NE 16.3 km/h 20.1 km/h 73 % 0.0 mm
01:40 9.2 °C 4.8 °C 1018.8 hPa NE 16.6 km/h 20.1 km/h 74 % 0.0 mm
01:46 9.2 °C 4.8 °C 1018.8 hPa NE 17.7 km/h 21.2 km/h 74 % 0.0 mm
01:51 9.2 °C 4.8 °C 1018.8 hPa ENE 17.2 km/h 21.2 km/h 74 % 0.0 mm
01:56 9.2 °C 4.8 °C 1018.8 hPa ENE 15.8 km/h 20.6 km/h 74 % 0.0 mm
02:01 9.2 °C 5.0 °C 1018.8 hPa ENE 17.2 km/h 19.1 km/h 75 % 0.0 mm
02:06 9.2 °C 5.0 °C 1018.8 hPa NE 16.9 km/h 20.6 km/h 75 % 0.0 mm
02:11 9.2 °C 5.0 °C 1018.8 hPa East 14.0 km/h 20.6 km/h 75 % 0.0 mm
02:16 9.1 °C 4.9 °C 1018.8 hPa NNE 11.6 km/h 17.7 km/h 75 % 0.0 mm
02:21 9.1 °C 4.9 °C 1018.8 hPa NE 19.1 km/h 19.1 km/h 75 % 0.0 mm
02:26 9.1 °C 4.9 °C 1018.8 hPa ENE 20.1 km/h 21.2 km/h 75 % 0.0 mm
02:31 9.0 °C 5.0 °C 1018.8 hPa ENE 20.9 km/h 21.6 km/h 76 % 0.0 mm
02:36 9.0 °C 5.0 °C 1018.8 hPa NE 17.7 km/h 21.6 km/h 76 % 0.0 mm
02:41 9.0 °C 5.0 °C 1018.8 hPa NNE 17.2 km/h 28.0 km/h 76 % 0.0 mm
02:46 8.9 °C 4.9 °C 1018.8 hPa East 10.8 km/h 29.1 km/h 76 % 0.0 mm
02:51 8.9 °C 5.1 °C 1018.8 hPa ENE 16.9 km/h 29.1 km/h 77 % 0.0 mm
02:56 8.8 °C 5.0 °C 1019.9 hPa NE 11.9 km/h 20.9 km/h 77 % 0.0 mm
03:01 8.7 °C 5.1 °C 1019.9 hPa East 13.0 km/h 20.9 km/h 78 % 0.0 mm
03:06 8.7 °C 5.1 °C 1019.9 hPa ENE 12.6 km/h 12.6 km/h 78 % 0.0 mm
03:11 8.6 °C 5.0 °C 1019.9 hPa ENE 13.7 km/h 20.6 km/h 78 % 0.0 mm
03:16 8.5 °C 5.1 °C 1019.9 hPa ENE 13.7 km/h 20.6 km/h 79 % 0.0 mm
03:21 8.5 °C 5.1 °C 1019.9 hPa East 16.3 km/h 16.9 km/h 79 % 0.0 mm
03:26 8.5 °C 5.3 °C 1019.9 hPa NE 17.7 km/h 17.7 km/h 80 % 0.0 mm
03:31 8.4 °C 5.3 °C 1019.9 hPa ENE 13.0 km/h 21.2 km/h 81 % 0.0 mm
03:36 8.4 °C 5.3 °C 1019.9 hPa NE 19.8 km/h 21.2 km/h 81 % 0.0 mm
03:41 8.3 °C 5.4 °C 1019.9 hPa ENE 16.9 km/h 24.5 km/h 82 % 0.0 mm
03:46 8.3 °C 5.4 °C 1019.9 hPa NE 17.2 km/h 24.5 km/h 82 % 0.0 mm
03:51 8.3 °C 5.4 °C 1019.9 hPa NE 16.6 km/h 20.6 km/h 82 % 0.0 mm
03:56 8.2 °C 5.3 °C 1019.9 hPa East 10.1 km/h 17.7 km/h 82 % 0.0 mm
04:01 8.2 °C 5.5 °C 1019.9 hPa NNE 13.0 km/h 17.2 km/h 83 % 0.0 mm
04:06 8.2 °C 5.5 °C 1019.9 hPa East 18.3 km/h 21.6 km/h 83 % 0.0 mm
04:11 8.1 °C 5.4 °C 1019.9 hPa ENE 10.1 km/h 21.6 km/h 83 % 0.0 mm
04:16 8.1 °C 5.3 °C 1019.9 hPa NE 15.4 km/h 20.6 km/h 83 % 0.0 mm
04:21 8.1 °C 5.5 °C 1019.9 hPa ENE 17.7 km/h 21.2 km/h 84 % 0.0 mm
04:26 8.1 °C 5.5 °C 1020.9 hPa ENE 13.0 km/h 21.2 km/h 84 % 0.0 mm
04:31 7.9 °C 5.4 °C 1020.9 hPa ENE 12.2 km/h 20.9 km/h 84 % 0.0 mm
04:36 7.8 °C 5.3 °C 1020.9 hPa ENE 10.1 km/h 17.7 km/h 84 % 0.0 mm
04:41 7.8 °C 5.5 °C 1020.9 hPa East 6.1 km/h 18.0 km/h 85 % 0.0 mm
04:46 7.7 °C 5.4 °C 1020.9 hPa East 15.8 km/h 18.0 km/h 85 % 0.0 mm
04:51 7.7 °C 5.4 °C 1020.9 hPa ENE 10.5 km/h 16.9 km/h 85 % 0.0 mm
04:56 7.7 °C 5.4 °C 1020.9 hPa ENE 12.2 km/h 16.9 km/h 86 % 0.0 mm
05:01 7.6 °C 5.3 °C 1020.9 hPa NE 12.6 km/h 16.9 km/h 86 % 0.0 mm
05:06 7.4 °C 5.3 °C 1020.9 hPa ENE 12.6 km/h 16.9 km/h 86 % 0.0 mm
05:07 7.4 °C 5.4 °C 1020.9 hPa ENE 12.6 km/h 16.9 km/h 87 % 0.0 mm
05:12 7.3 °C 5.3 °C 1020.9 hPa ENE 11.9 km/h 18.0 km/h 87 % 0.0 mm
05:17 7.3 °C 5.4 °C 1020.9 hPa East 9.0 km/h 18.0 km/h 88 % 0.0 mm
05:22 7.3 °C 5.2 °C 1020.9 hPa NE 10.1 km/h 17.2 km/h 87 % 0.0 mm
05:27 7.3 °C 5.4 °C 1020.9 hPa ENE 7.9 km/h 14.0 km/h 88 % 0.0 mm
05:32 7.2 °C 5.3 °C 1020.9 hPa NE 16.3 km/h 16.3 km/h 88 % 0.0 mm
05:37 7.2 °C 5.4 °C 1020.9 hPa ENE 15.4 km/h 17.7 km/h 89 % 0.0 mm
05:42 7.1 °C 5.4 °C 1020.9 hPa NE 13.0 km/h 17.7 km/h 89 % 0.0 mm
05:47 6.9 °C 5.4 °C 1020.9 hPa ENE 11.1 km/h 15.8 km/h 90 % 0.0 mm
05:52 6.9 °C 5.4 °C 1020.9 hPa NE 10.5 km/h 15.8 km/h 90 % 0.0 mm
05:57 6.8 °C 5.3 °C 1020.9 hPa ENE 9.3 km/h 15.8 km/h 90 % 0.0 mm
06:02 6.8 °C 5.3 °C 1020.9 hPa NE 14.0 km/h 17.7 km/h 90 % 0.0 mm
06:07 6.8 °C 5.5 °C 1020.9 hPa ENE 8.7 km/h 20.1 km/h 91 % 0.0 mm
06:12 6.8 °C 5.5 °C 1020.9 hPa East 9.3 km/h 20.1 km/h 91 % 0.0 mm
06:17 6.8 °C 5.6 °C 1020.9 hPa NE 10.5 km/h 16.3 km/h 92 % 0.0 mm
06:22 6.8 °C 5.6 °C 1020.9 hPa East 12.2 km/h 15.8 km/h 92 % 0.0 mm
06:27 6.8 °C 5.7 °C 1020.9 hPa ENE 11.6 km/h 15.8 km/h 92 % 0.0 mm
06:32 6.8 °C 5.6 °C 1020.9 hPa NE 13.7 km/h 14.0 km/h 92 % 0.0 mm
06:37 6.8 °C 5.7 °C 1020.9 hPa ENE 10.5 km/h 15.4 km/h 93 % 0.0 mm
06:42 6.7 °C 5.6 °C 1020.9 hPa East 6.9 km/h 15.4 km/h 93 % 0.0 mm
06:47 6.7 °C 5.4 °C 1020.9 hPa East 12.6 km/h 12.6 km/h 92 % 0.0 mm
06:53 6.8 °C 5.6 °C 1021.9 hPa ESE 9.7 km/h 12.6 km/h 92 % 0.0 mm
06:58 6.8 °C 5.7 °C 1021.9 hPa ENE 9.3 km/h 13.0 km/h 93 % 0.0 mm
07:03 6.8 °C 5.7 °C 1021.9 hPa ENE 7.6 km/h 13.0 km/h 93 % 0.0 mm
07:07 6.7 °C 5.6 °C 1021.9 hPa East 7.9 km/h 12.2 km/h 93 % 0.0 mm
07:13 6.7 °C 5.6 °C 1021.9 hPa NE 10.1 km/h 13.7 km/h 93 % 0.0 mm
07:18 6.7 °C 5.6 °C 1021.9 hPa East 11.9 km/h 13.7 km/h 93 % 0.0 mm
07:22 6.8 °C 5.7 °C 1022.9 hPa ENE 6.4 km/h 12.6 km/h 93 % 0.0 mm
07:28 6.8 °C 5.8 °C 1022.9 hPa ENE 11.9 km/h 13.7 km/h 93 % 0.0 mm
07:32 6.8 °C 5.8 °C 1022.9 hPa NE 13.0 km/h 15.8 km/h 93 % 0.0 mm
07:37 6.9 °C 6.1 °C 1022.9 hPa NE 10.5 km/h 15.8 km/h 94 % 0.0 mm
07:43 6.9 °C 6.1 °C 1022.9 hPa ENE 9.0 km/h 15.8 km/h 94 % 0.0 mm
07:48 6.9 °C 6.1 °C 1022.9 hPa ENE 11.9 km/h 12.6 km/h 94 % 0.0 mm
07:53 7.1 °C 6.2 °C 1021.9 hPa East 9.7 km/h 14.0 km/h 94 % 0.0 mm
07:58 7.1 °C 6.2 °C 1021.9 hPa NE 17.7 km/h 17.7 km/h 94 % 0.0 mm
08:02 7.1 °C 6.2 °C 1021.9 hPa ENE 12.6 km/h 17.7 km/h 94 % 0.0 mm
08:07 7.1 °C 6.2 °C 1023.9 hPa East 9.7 km/h 15.1 km/h 94 % 0.0 mm
08:12 7.2 °C 6.3 °C 1023.9 hPa NE 9.0 km/h 14.0 km/h 94 % 0.0 mm
08:17 7.2 °C 6.3 °C 1023.9 hPa NE 14.0 km/h 16.9 km/h 94 % 0.0 mm
08:22 7.3 °C 6.3 °C 1022.9 hPa ENE 12.2 km/h 17.2 km/h 94 % 0.0 mm
08:28 7.3 °C 6.3 °C 1022.9 hPa ENE 14.3 km/h 20.1 km/h 94 % 0.0 mm
08:32 7.3 °C 6.4 °C 1022.9 hPa NE 9.0 km/h 20.1 km/h 94 % 0.0 mm
08:37 7.3 °C 6.4 °C 1022.9 hPa ENE 14.0 km/h 16.9 km/h 94 % 0.0 mm
08:42 7.4 °C 6.6 °C 1023.9 hPa ENE 15.8 km/h 17.2 km/h 94 % 0.0 mm
08:47 7.6 °C 6.7 °C 1023.9 hPa ENE 11.9 km/h 17.2 km/h 94 % 0.0 mm
08:52 7.7 °C 6.7 °C 1023.9 hPa NE 10.5 km/h 16.3 km/h 94 % 0.0 mm
08:58 7.7 °C 6.8 °C 1023.9 hPa NE 10.5 km/h 14.0 km/h 94 % 0.0 mm
09:03 7.8 °C 6.8 °C 1023.9 hPa ENE 13.7 km/h 16.3 km/h 93 % 0.0 mm
09:08 7.9 °C 6.9 °C 1024.9 hPa ENE 15.4 km/h 17.7 km/h 93 % 0.0 mm
09:13 8.1 °C 6.9 °C 1024.9 hPa ENE 13.0 km/h 17.7 km/h 92 % 0.0 mm
09:18 8.3 °C 7.1 °C 1024.9 hPa ENE 10.5 km/h 17.2 km/h 92 % 0.0 mm
09:23 8.4 °C 7.1 °C 1024.9 hPa ENE 9.3 km/h 20.6 km/h 91 % 0.0 mm
09:28 8.6 °C 7.2 °C 1024.9 hPa East 14.0 km/h 23.8 km/h 91 % 0.0 mm
09:29 8.7 °C 7.3 °C 1024.9 hPa ENE 16.3 km/h 23.8 km/h 91 % 0.0 mm
09:34 8.9 °C 7.4 °C 1024.9 hPa ENE 10.5 km/h 23.8 km/h 90 % 0.0 mm
09:39 8.9 °C 7.2 °C 1023.9 hPa East 15.4 km/h 21.2 km/h 89 % 0.0 mm
09:44 9.1 °C 7.2 °C 1023.9 hPa ENE 10.5 km/h 21.2 km/h 88 % 0.0 mm
09:49 9.4 °C 7.3 °C 1023.9 hPa ENE 15.8 km/h 19.5 km/h 87 % 0.0 mm
09:54 9.6 °C 7.4 °C 1024.9 hPa NE 9.7 km/h 17.2 km/h 86 % 0.0 mm
09:59 9.9 °C 7.5 °C 1024.9 hPa NE 12.2 km/h 19.8 km/h 85 % 0.0 mm
10:04 9.9 °C 7.3 °C 1024.9 hPa NE 12.2 km/h 21.2 km/h 84 % 0.0 mm
10:09 9.9 °C 7.2 °C 1024.9 hPa ENE 9.3 km/h 21.2 km/h 83 % 0.0 mm
10:14 10.1 °C 7.5 °C 1024.9 hPa East 17.2 km/h 18.3 km/h 84 % 0.0 mm
10:19 10.5 °C 7.7 °C 1024.9 hPa East 15.1 km/h 21.2 km/h 83 % 0.0 mm
10:24 10.8 °C 7.7 °C 1024.9 hPa ENE 16.3 km/h 21.2 km/h 81 % 0.0 mm
10:29 10.6 °C 7.3 °C 1024.9 hPa East 17.7 km/h 23.3 km/h 80 % 0.0 mm
10:34 10.7 °C 7.4 °C 1024.9 hPa ENE 25.3 km/h 25.3 km/h 80 % 0.0 mm
10:39 11.0 °C 7.7 °C 1026.0 hPa NE 13.0 km/h 25.3 km/h 80 % 0.0 mm
10:44 10.7 °C 7.0 °C 1026.0 hPa East 8.7 km/h 20.9 km/h 78 % 0.0 mm
10:49 10.7 °C 7.2 °C 1026.0 hPa ENE 13.7 km/h 20.6 km/h 79 % 0.0 mm
10:54 10.9 °C 7.4 °C 1026.0 hPa East 10.5 km/h 20.6 km/h 79 % 0.0 mm
10:59 11.1 °C 7.6 °C 1026.0 hPa NE 13.0 km/h 17.2 km/h 79 % 0.0 mm
11:04 11.4 °C 7.8 °C 1026.0 hPa ENE 12.2 km/h 16.9 km/h 79 % 0.0 mm
11:09 11.4 °C 7.8 °C 1026.0 hPa East 9.3 km/h 17.7 km/h 78 % 0.0 mm
11:14 11.4 °C 7.6 °C 1026.0 hPa East 16.9 km/h 20.1 km/h 77 % 0.0 mm
11:19 11.6 °C 7.5 °C 1026.0 hPa NE 9.3 km/h 20.1 km/h 76 % 0.0 mm
11:24 11.6 °C 7.5 °C 1026.0 hPa NNE 13.0 km/h 20.1 km/h 76 % 0.0 mm
11:29 11.7 °C 7.6 °C 1026.0 hPa NE 13.7 km/h 20.9 km/h 76 % 0.0 mm
11:34 11.8 °C 7.4 °C 1026.0 hPa NE 16.9 km/h 20.9 km/h 75 % 0.0 mm
11:39 11.8 °C 7.4 °C 1026.0 hPa ENE 15.4 km/h 19.5 km/h 74 % 0.0 mm
11:44 12.1 °C 7.6 °C 1026.0 hPa ENE 16.3 km/h 21.9 km/h 74 % 0.0 mm
11:49 12.3 °C 7.4 °C 1026.0 hPa NNE 20.6 km/h 28.0 km/h 72 % 0.0 mm
11:54 12.7 °C 7.8 °C 1026.0 hPa NE 16.9 km/h 28.0 km/h 72 % 0.0 mm
11:59 12.9 °C 7.6 °C 1026.0 hPa NE 10.5 km/h 21.2 km/h 70 % 0.0 mm
12:04 12.8 °C 7.3 °C 1026.0 hPa ENE 10.5 km/h 21.2 km/h 69 % 0.0 mm
12:09 13.1 °C 7.5 °C 1026.0 hPa ENE 14.0 km/h 20.6 km/h 69 % 0.0 mm
12:14 13.1 °C 7.3 °C 1026.0 hPa East 14.0 km/h 20.6 km/h 68 % 0.0 mm
12:19 13.2 °C 7.7 °C 1026.0 hPa East 8.7 km/h 20.1 km/h 69 % 0.0 mm
12:24 13.4 °C 7.8 °C 1026.0 hPa East 16.6 km/h 20.6 km/h 69 % 0.0 mm
12:29 13.5 °C 7.9 °C 1026.0 hPa ENE 14.3 km/h 20.6 km/h 69 % 0.0 mm
12:34 13.4 °C 7.6 °C 1026.0 hPa NE 15.4 km/h 17.2 km/h 68 % 0.0 mm
12:39 13.1 °C 7.1 °C 1024.9 hPa NE 15.4 km/h 17.7 km/h 67 % 0.0 mm
12:44 13.4 °C 7.6 °C 1024.9 hPa NE 16.9 km/h 20.1 km/h 68 % 0.0 mm
12:49 14.1 °C 8.1 °C 1024.9 hPa NE 14.0 km/h 20.1 km/h 67 % 0.0 mm
12:55 13.9 °C 7.7 °C 1026.0 hPa NE 13.0 km/h 19.5 km/h 66 % 0.0 mm
13:00 14.3 °C 8.1 °C 1026.0 hPa ENE 12.2 km/h 19.5 km/h 66 % 0.0 mm
13:05 14.1 °C 7.6 °C 1026.0 hPa NE 13.7 km/h 20.6 km/h 65 % 0.0 mm
13:10 13.8 °C 7.1 °C 1026.0 hPa East 12.6 km/h 20.6 km/h 64 % 0.0 mm
13:15 14.4 °C 7.7 °C 1026.0 hPa NE 17.7 km/h 20.1 km/h 64 % 0.0 mm
13:20 14.7 °C 7.7 °C 1026.0 hPa ENE 13.0 km/h 20.1 km/h 63 % 0.0 mm
13:25 15.0 °C 8.0 °C 1026.0 hPa ESE 5.8 km/h 19.8 km/h 63 % 0.0 mm
13:30 15.4 °C 8.1 °C 1026.0 hPa ENE 7.9 km/h 16.6 km/h 62 % 0.0 mm
13:35 15.2 °C 7.2 °C 1026.0 hPa NNE 15.8 km/h 17.7 km/h 59 % 0.0 mm
13:40 14.6 °C 6.4 °C 1026.0 hPa ENE 15.4 km/h 20.9 km/h 58 % 0.0 mm
13:45 14.3 °C 6.4 °C 1026.0 hPa NE 10.1 km/h 20.9 km/h 59 % 0.0 mm
13:50 14.8 °C 7.3 °C 1026.0 hPa ENE 8.7 km/h 16.9 km/h 61 % 0.0 mm
13:55 15.1 °C 7.1 °C 1026.0 hPa East 10.1 km/h 16.6 km/h 59 % 0.0 mm
14:00 15.5 °C 7.3 °C 1026.0 hPa East 13.0 km/h 17.2 km/h 58 % 0.0 mm
14:05 15.4 °C 6.9 °C 1026.0 hPa East 12.2 km/h 19.5 km/h 57 % 0.0 mm
14:10 15.1 °C 6.6 °C 1026.0 hPa NE 17.2 km/h 19.5 km/h 57 % 0.0 mm
14:15 15.3 °C 6.6 °C 1026.0 hPa East 18.0 km/h 20.6 km/h 56 % 0.0 mm
14:20 15.1 °C 6.1 °C 1026.0 hPa East 12.2 km/h 23.0 km/h 55 % 0.0 mm
14:25 15.4 °C 6.4 °C 1026.0 hPa East 12.6 km/h 23.0 km/h 55 % 0.0 mm
14:30 15.6 °C 6.6 °C 1026.0 hPa NNE 15.8 km/h 19.8 km/h 55 % 0.0 mm
14:35 15.6 °C 6.6 °C 1026.0 hPa ENE 10.1 km/h 23.0 km/h 55 % 0.0 mm
14:40 15.6 °C 6.8 °C 1024.9 hPa NNE 16.6 km/h 23.0 km/h 56 % 0.0 mm
14:45 15.5 °C 6.2 °C 1024.9 hPa ENE 11.9 km/h 24.8 km/h 54 % 0.0 mm
14:50 15.6 °C 6.3 °C 1024.9 hPa ENE 21.2 km/h 24.8 km/h 54 % 0.0 mm
14:55 15.1 °C 5.6 °C 1023.9 hPa NNE 19.8 km/h 24.8 km/h 53 % 0.0 mm
15:00 15.3 °C 6.1 °C 1023.9 hPa ENE 16.6 km/h 24.8 km/h 54 % 0.0 mm
15:05 15.6 °C 6.3 °C 1023.9 hPa NE 11.1 km/h 21.2 km/h 54 % 0.0 mm
15:10 15.7 °C 6.4 °C 1024.9 hPa NE 20.6 km/h 27.7 km/h 54 % 0.0 mm
15:15 15.2 °C 5.4 °C 1024.9 hPa ENE 16.9 km/h 27.7 km/h 52 % 0.0 mm
15:20 15.0 °C 5.2 °C 1024.9 hPa NE 14.0 km/h 21.9 km/h 52 % 0.0 mm
15:25 14.8 °C 5.1 °C 1024.9 hPa East 16.9 km/h 21.2 km/h 52 % 0.0 mm
15:30 15.1 °C 5.6 °C 1024.9 hPa NE 12.6 km/h 17.7 km/h 53 % 0.0 mm
15:35 15.1 °C 5.3 °C 1024.9 hPa ENE 20.6 km/h 20.9 km/h 52 % 0.0 mm
15:40 15.1 °C 5.6 °C 1024.9 hPa NE 17.2 km/h 21.9 km/h 53 % 0.0 mm
15:45 15.0 °C 5.5 °C 1024.9 hPa NNE 23.8 km/h 23.8 km/h 53 % 0.0 mm
15:50 14.9 °C 5.9 °C 1024.9 hPa NE 15.4 km/h 23.8 km/h 55 % 0.0 mm
15:55 15.2 °C 6.4 °C 1024.9 hPa NE 14.8 km/h 20.9 km/h 56 % 0.0 mm
16:00 15.1 °C 6.4 °C 1024.9 hPa NE 16.3 km/h 20.9 km/h 56 % 0.0 mm
16:05 14.8 °C 5.6 °C 1024.9 hPa NE 21.2 km/h 21.2 km/h 54 % 0.0 mm
16:10 14.8 °C 5.8 °C 1024.9 hPa NE 20.1 km/h 24.5 km/h 55 % 0.0 mm
16:15 14.9 °C 5.9 °C 1024.9 hPa NNE 20.9 km/h 24.5 km/h 55 % 0.0 mm
16:20 15.1 °C 6.4 °C 1024.9 hPa NE 16.9 km/h 22.7 km/h 56 % 0.0 mm
16:25 14.9 °C 5.4 °C 1024.9 hPa NE 12.2 km/h 24.5 km/h 53 % 0.0 mm
16:30 15.0 °C 5.8 °C 1024.9 hPa NE 17.2 km/h 24.5 km/h 54 % 0.0 mm
16:35 14.9 °C 5.7 °C 1024.9 hPa NE 16.3 km/h 24.5 km/h 54 % 0.0 mm
16:40 14.8 °C 5.3 °C 1026.0 hPa ENE 14.3 km/h 24.5 km/h 53 % 0.0 mm
16:45 14.8 °C 5.6 °C 1026.0 hPa NE 15.8 km/h 23.0 km/h 54 % 0.0 mm
16:51 14.6 °C 5.7 °C 1026.0 hPa NNE 20.9 km/h 21.2 km/h 55 % 0.0 mm
16:56 14.5 °C 5.6 °C 1026.0 hPa NNE 20.6 km/h 21.2 km/h 55 % 0.0 mm
17:01 14.6 °C 5.7 °C 1026.0 hPa NE 16.6 km/h 20.6 km/h 55 % 0.0 mm
17:03 14.5 °C 5.3 °C 1026.0 hPa NE 17.2 km/h 24.8 km/h 54 % 0.0 mm
17:08 14.4 °C 5.2 °C 1024.9 hPa NNE 16.3 km/h 24.8 km/h 54 % 0.0 mm
17:13 14.3 °C 5.1 °C 1024.9 hPa NNE 17.2 km/h 24.8 km/h 54 % 0.0 mm
17:18 14.1 °C 4.9 °C 1024.9 hPa NE 16.6 km/h 20.9 km/h 54 % 0.0 mm
17:23 13.9 °C 4.8 °C 1024.9 hPa NE 26.7 km/h 26.7 km/h 54 % 0.0 mm
17:24 13.9 °C 4.8 °C 1024.9 hPa NNE 16.6 km/h 26.7 km/h 54 % 0.0 mm
17:29 13.9 °C 4.8 °C 1024.9 hPa NE 21.2 km/h 28.5 km/h 54 % 0.0 mm
17:34 13.8 °C 4.7 °C 1024.9 hPa NE 19.5 km/h 28.5 km/h 54 % 0.0 mm
17:39 13.7 °C 4.8 °C 1024.9 hPa NE 21.2 km/h 25.9 km/h 55 % 0.0 mm
17:44 13.5 °C 5.2 °C 1024.9 hPa NE 12.6 km/h 25.9 km/h 57 % 0.0 mm
17:49 13.5 °C 5.2 °C 1024.9 hPa NE 23.3 km/h 23.3 km/h 57 % 0.0 mm
17:54 13.5 °C 5.2 °C 1024.9 hPa NE 13.7 km/h 23.3 km/h 57 % 0.0 mm
17:55 13.5 °C 5.2 °C 1024.9 hPa NE 15.4 km/h 23.3 km/h 57 % 0.0 mm
18:00 13.3 °C 5.0 °C 1024.9 hPa NE 20.1 km/h 23.3 km/h 57 % 0.0 mm
18:05 13.2 °C 4.9 °C 1024.9 hPa NNE 15.8 km/h 24.5 km/h 57 % 0.0 mm
18:10 13.2 °C 4.9 °C 1026.0 hPa NE 17.2 km/h 24.5 km/h 57 % 0.0 mm
18:15 13.1 °C 4.8 °C 1026.0 hPa NE 15.8 km/h 24.8 km/h 57 % 0.0 mm
18:20 13.1 °C 4.7 °C 1026.0 hPa NE 15.8 km/h 24.8 km/h 57 % 0.0 mm
18:25 12.9 °C 4.9 °C 1026.0 hPa NE 13.7 km/h 24.8 km/h 58 % 0.0 mm
18:30 12.7 °C 4.8 °C 1026.0 hPa North 12.6 km/h 16.9 km/h 59 % 0.0 mm
18:35 12.4 °C 5.1 °C 1026.0 hPa NNE 14.8 km/h 20.9 km/h 61 % 0.0 mm
18:40 12.3 °C 5.3 °C 1026.0 hPa NE 15.8 km/h 20.9 km/h 62 % 0.0 mm
18:45 12.2 °C 5.1 °C 1026.0 hPa NE 12.6 km/h 19.8 km/h 62 % 0.0 mm
18:50 12.1 °C 5.2 °C 1026.0 hPa NE 10.5 km/h 19.8 km/h 63 % 0.0 mm
18:55 11.8 °C 5.1 °C 1026.0 hPa NE 13.0 km/h 16.6 km/h 63 % 0.0 mm
19:00 11.8 °C 4.9 °C 1026.0 hPa NNE 16.6 km/h 16.6 km/h 63 % 0.0 mm
19:05 11.7 °C 5.1 °C 1026.0 hPa NE 14.0 km/h 16.6 km/h 64 % 0.0 mm
19:10 11.6 °C 5.2 °C 1027.0 hPa NE 12.2 km/h 17.7 km/h 65 % 0.0 mm
19:16 11.4 °C 5.1 °C 1027.0 hPa NE 13.0 km/h 17.7 km/h 65 % 0.0 mm
19:21 11.3 °C 5.2 °C 1027.0 hPa NE 8.7 km/h 17.7 km/h 66 % 0.0 mm
19:26 11.1 °C 4.9 °C 1027.0 hPa ENE 10.1 km/h 12.2 km/h 66 % 0.0 mm
19:31 11.0 °C 5.1 °C 1027.0 hPa NE 9.3 km/h 14.0 km/h 67 % 0.0 mm
19:36 11.0 °C 5.3 °C 1027.0 hPa NE 13.7 km/h 14.0 km/h 68 % 0.0 mm
19:41 10.8 °C 5.1 °C 1027.0 hPa ENE 11.9 km/h 13.7 km/h 68 % 0.0 mm
19:46 10.7 °C 5.2 °C 1027.0 hPa NE 10.1 km/h 11.9 km/h 69 % 0.0 mm
19:51 10.6 °C 5.3 °C 1027.0 hPa NE 9.0 km/h 12.2 km/h 70 % 0.0 mm
19:56 10.5 °C 5.2 °C 1027.0 hPa NE 10.5 km/h 12.2 km/h 70 % 0.0 mm
20:01 10.4 °C 5.3 °C 1027.0 hPa NE 10.1 km/h 12.2 km/h 71 % 0.0 mm
20:06 10.3 °C 5.3 °C 1027.0 hPa NE 6.9 km/h 12.2 km/h 71 % 0.0 mm
20:11 10.1 °C 5.3 °C 1027.0 hPa NE 9.0 km/h 12.2 km/h 72 % 0.0 mm
20:16 10.0 °C 5.2 °C 1027.0 hPa NE 6.9 km/h 10.5 km/h 72 % 0.0 mm
20:21 10.0 °C 5.4 °C 1027.0 hPa ENE 11.9 km/h 13.7 km/h 73 % 0.0 mm
20:26 10.1 °C 5.4 °C 1027.0 hPa NE 9.7 km/h 13.7 km/h 73 % 0.0 mm
20:31 10.0 °C 5.4 °C 1027.0 hPa ENE 7.9 km/h 14.0 km/h 73 % 0.0 mm
20:36 9.9 °C 5.3 °C 1027.0 hPa ENE 9.7 km/h 14.0 km/h 73 % 0.0 mm
20:41 9.9 °C 5.3 °C 1027.0 hPa ENE 6.4 km/h 12.2 km/h 73 % 0.0 mm
20:46 9.8 °C 5.0 °C 1027.0 hPa NE 9.3 km/h 10.5 km/h 72 % 0.0 mm
20:51 9.7 °C 5.1 °C 1027.0 hPa ENE 8.7 km/h 9.7 km/h 73 % 0.0 mm
20:56 9.6 °C 5.0 °C 1027.0 hPa Calm   9.7 km/h 73 % 0.0 mm
21:01 9.5 °C 4.9 °C 1027.0 hPa ENE 6.4 km/h 12.6 km/h 73 % 0.0 mm
21:06 9.6 °C 5.0 °C 1027.0 hPa ENE 9.3 km/h 12.6 km/h 73 % 0.0 mm
21:11 9.5 °C 4.9 °C 1028.0 hPa ENE 6.4 km/h 12.2 km/h 73 % 0.0 mm
21:16 9.5 °C 4.9 °C 1028.0 hPa NE 7.6 km/h 12.6 km/h 73 % 0.0 mm
21:21 9.4 °C 4.8 °C 1028.0 hPa NNE 7.9 km/h 12.6 km/h 73 % 0.0 mm
21:26 9.1 °C 4.5 °C 1028.0 hPa NE 9.0 km/h 9.7 km/h 73 % 0.0 mm
21:31 9.0 °C 4.4 °C 1028.0 hPa NNE 9.0 km/h 10.5 km/h 73 % 0.0 mm
21:36 8.8 °C 4.2 °C 1028.0 hPa North 11.9 km/h 11.9 km/h 73 % 0.0 mm
21:41 8.5 °C 4.3 °C 1028.0 hPa NNE 10.8 km/h 11.9 km/h 75 % 0.0 mm
21:46 8.4 °C 4.4 °C 1028.0 hPa NNE 12.2 km/h 14.3 km/h 76 % 0.0 mm
21:51 8.2 °C 4.4 °C 1028.0 hPa NNE 12.6 km/h 14.3 km/h 77 % 0.0 mm
21:56 8.2 °C 4.4 °C 1029.0 hPa NNE 9.7 km/h 14.3 km/h 77 % 0.0 mm
22:01 8.2 °C 4.4 °C 1029.0 hPa NNE 6.9 km/h 13.0 km/h 77 % 0.0 mm
22:06 8.2 °C 4.4 °C 1029.0 hPa NE 9.7 km/h 12.2 km/h 77 % 0.0 mm
22:11 8.2 °C 4.4 °C 1029.0 hPa NE 6.1 km/h 12.2 km/h 77 % 0.0 mm
22:16 8.2 °C 4.4 °C 1029.0 hPa NE 10.5 km/h 14.0 km/h 77 % 0.0 mm
22:21 8.2 °C 4.4 °C 1029.0 hPa NNE 9.3 km/h 14.3 km/h 77 % 0.0 mm
22:26 8.2 °C 4.4 °C 1029.0 hPa NNE 10.5 km/h 14.3 km/h 77 % 0.0 mm
22:31 7.9 °C 4.9 °C 1029.0 hPa NNE 11.9 km/h 13.0 km/h 81 % 0.0 mm
22:37 7.8 °C 4.8 °C 1029.0 hPa North 8.7 km/h 13.7 km/h 81 % 0.0 mm
22:42 7.8 °C 4.9 °C 1029.0 hPa North 11.1 km/h 13.7 km/h 82 % 0.0 mm
22:47 7.7 °C 5.1 °C 1029.0 hPa NNE 12.6 km/h 14.0 km/h 83 % 0.0 mm
22:52 7.7 °C 5.1 °C 1029.0 hPa NE 9.3 km/h 14.0 km/h 83 % 0.0 mm
22:57 7.7 °C 4.9 °C 1029.0 hPa NNE 13.7 km/h 14.0 km/h 83 % 0.0 mm
23:02 7.7 °C 4.9 °C 1029.0 hPa NE 13.7 km/h 14.0 km/h 83 % 0.0 mm
23:07 7.6 °C 5.0 °C 1029.0 hPa NNE 10.1 km/h 13.7 km/h 84 % 0.0 mm
23:12 7.6 °C 5.0 °C 1029.0 hPa ENE 11.9 km/h 14.0 km/h 84 % 0.0 mm
23:17 7.6 °C 5.0 °C 1029.0 hPa NNE 10.5 km/h 14.3 km/h 84 % 0.0 mm
23:22 7.7 °C 5.1 °C 1029.0 hPa NE 12.2 km/h 15.8 km/h 84 % 0.0 mm
23:27 7.8 °C 5.1 °C 1029.0 hPa North 13.0 km/h 16.3 km/h 83 % 0.0 mm
23:32 7.9 °C 5.2 °C 1029.0 hPa NE 13.7 km/h 20.9 km/h 83 % 0.0 mm
23:37 8.1 °C 5.2 °C 1029.0 hPa NNE 14.3 km/h 20.9 km/h 82 % 0.0 mm
23:42 8.1 °C 5.1 °C 1029.0 hPa NNE 12.2 km/h 16.6 km/h 81 % 0.0 mm
23:47 8.1 °C 4.9 °C 1029.0 hPa NE 11.9 km/h 19.5 km/h 80 % 0.0 mm
23:52 8.2 °C 5.0 °C 1029.0 hPa NNE 12.6 km/h 19.5 km/h 80 % 0.0 mm
23:57 8.1 °C 4.6 °C 1029.0 hPa NE 13.7 km/h 19.1 km/h 79 % 0.0 mm
Le Gheer Warneton
Courtoisie de Weather Underground - 2.25 mb

Mise a jour : 16-12-17 12:09:11
Généré par Cumulus 1.9.4 (1099)